Other Surface Observations
Issued by NWS Charleston, SC

Home | Current Version | Previous Version | Text Only | Print | Product List | Glossary On
Versions: 1 2 3 4 5 6 7 8 9 10 11 12 13 14 15 16 17 18 19 20 21 22 23 24 25 26 27 28 29 30 31 32 33 34 35 36 37 38 39 40 41 42 43 44 45 46 47 48 49 50
000
SXUS52 KCHS 202241
OSOCHS

MARINE OBSERVATIONS
NATIONAL WEATHER SERVICE CHARLESTON SC
600 PM EDT WED SEP 20 2017

...DOWNTOWN CHARLESTON AND HARBOR...

CITY           SKY/WX    TMP DP  RH WIND       PRES   REMARKS
WATERFRONT PRK   N/A     84  73  69 S7        29.81S HX  90

...LAKE MOULTRIE...

CITY           SKY/WX    TMP DP  RH WIND       PRES   REMARKS
PINOPOLIS        N/A     88  70  55 CALM      29.89S HX  92

...LAKE AND SUPPLEMENTAL COASTAL OBSERVATIONS...

STATION/POSITION TIME  TEMP    WIND        PRES    WAVE   SWELL
                       AIR SEA DIR/SP/G            HT/PER HT/PER/DIR
                 (UTC) (F)     (DEG/KT/KT) (MB)    (FT/S) (FT/S/D)
FORT PULASKI     2200   78 80  190/  4/  8 1015.3
SAPELO ISLAND    2200   84        CALM     1014.0
WINYAH BAY       2145   84     190/  8     1015.0R
LAKE MURRAY      2220   85      CALM  /  2 1013.5
ACE BASIN NERRS  2145   84     150/  2     1015.0S


...C-MAN AND BUOY OBSERVATIONS...

STATION/POSITION TIME  TEMP    WIND        PRES    WAVE   SWELL
                       AIR SEA DIR/SP/G            HT/PER HT/PER/DIR
                 (UTC) (F)     (DEG/KT/KT) (MB)    (FT/S) (FT/S/D)
BUOY 41004       2210   81 82  200/  6/  8 1014.7
BUOY 41008       2150   81 81  140/ 12/ 14 1014.6F   2/12   2/ 60/12
FOLLY BEACH CMAN 2200   81     190/ 10/ 11 1015.5F
CAPERS NS BUOY   2208   80 81  200/ 10/ 14 1014.5F
FRIPP NS BUOY    2208   81     180/ 10/ 14 1020.5R
5E ST. MARYS GA  2200      83                N/A     3/13   2/ 80/13


STATION/POSITION TIME  TEMP    WIND        PRES    WAVE   SWELL
                       AIR SEA DIR/SP/G            HT/PER HT/PER/DIR
                 (UTC) (F)     (DEG/KT/KT) (MB)    (FT/S) (FT/S/D)
FRYING PAN BUOY  2210   81 82  220/ 10/ 14 1014.5
BUOY 41025       2150   78 76  240/  8/ 10 1013.7R   4/11   3/ 60/11
CAPE LOOKOUT NC  2200   80     220/  8/ 11 1013.8R
BUOY 41002       2150   81 81  330/  6/  8 1015.5R   7/11   7/ 40/11
BUOY 41010       2210      85   50/  8/ 10 1015.3
ST AUGUSTINE FL  2200   82 85  120/ 11/ 11 1015.5F

$$




USA.gov is the U.S. government's official web portal to all federal, state and local government web resources and services.